When you browse on this site, cookies collect data to enhance your experience and personalize the content and advertising you see.
Visit our Privacy Policy to learn more. By continuing to use the site, you agree to this use of cookies and data.
  • In France
  • List of Countries
  • For 7 days
  • Water Temperature
  • Weather Map
  • Weather Widgets
  • user-avatar
    Login

    Hourly Weather Buna

    Today, 16 November, Saturday

    Time Temperature Precipitation Wind Pressure Humidity
    00:00 +12°C° 0.2 mm 7 mps 716 mmHg 91%
    01:00 +13°C° 0 mm 6 mps 716 mmHg 92%
    02:00 +13°C° 0.4 mm 6 mps 716 mmHg 92%
    03:00 +13°C° 0.4 mm 6 mps 716 mmHg 92%
    04:00 +13°C° 0.4 mm 6 mps 716 mmHg 92%
    05:00 +13°C° 0.5 mm 6 mps 717 mmHg 92%
    06:00 +13°C° 0.5 mm 6 mps 717 mmHg 92%
    07:00 +13°C° 0 mm 5 mps 717 mmHg 93%
    08:00 +13°C° 0.6 mm 5 mps 718 mmHg 90%
    09:00 +14°C° 0.6 mm 6 mps 718 mmHg 88%
    10:00 +14°C° 0.6 mm 7 mps 718 mmHg 85%
    11:00 +15°C° 0.5 mm 6 mps 718 mmHg 83%
    12:00 +15°C° 0.5 mm 6 mps 718 mmHg 81%
    13:00 +15°C° 0 mm 5 mps 718 mmHg 80%
    14:00 +15°C° 0.2 mm 4 mps 718 mmHg 82%
    15:00 +14°C° 0.2 mm 3 mps 718 mmHg 84%
    16:00 +13°C° 0.2 mm 3 mps 717 mmHg 86%
    17:00 +14°C° 0.2 mm 2 mps 717 mmHg 87%
    18:00 +14°C° 0.2 mm 2 mps 717 mmHg 89%
    19:00 +13°C° 0.2 mm 2 mps 717 mmHg 91%
    20:00 +13°C° 0.4 mm 2 mps 717 mmHg 91%
    21:00 +13°C° 0.4 mm 2 mps 717 mmHg 91%
    22:00 +12°C° 0.4 mm 3 mps 717 mmHg 92%
    23:00 +12°C° 0.2 mm 3 mps 717 mmHg 92%

    Tomorrow, 17 November, Sunday

    Time Temperature Precipitation Wind Pressure Humidity
    00:00 +12°C° 0.2 mm 3 mps 717 mmHg 92%
    01:00 +12°C° 0.2 mm 3 mps 716 mmHg 92%
    02:00 +12°C° 0.2 mm 3 mps 716 mmHg 91%
    03:00 +12°C° 0.2 mm 3 mps 716 mmHg 91%
    04:00 +12°C° 0.2 mm 3 mps 716 mmHg 91%
    05:00 +12°C° 0 mm 3 mps 716 mmHg 89%
    06:00 +12°C° 0 mm 3 mps 716 mmHg 87%
    07:00 +12°C° 0 mm 3 mps 715 mmHg 85%
    08:00 +13°C° 0 mm 3 mps 715 mmHg 82%
    09:00 +14°C° 0 mm 3 mps 715 mmHg 79%
    10:00 +16°C° 0 mm 3 mps 715 mmHg 76%
    11:00 +16°C° 0 mm 3 mps 715 mmHg 77%
    12:00 +16°C° 0 mm 3 mps 715 mmHg 78%
    13:00 +16°C° 0 mm 3 mps 715 mmHg 79%
    14:00 +14°C° 0.4 mm 3 mps 714 mmHg 80%
    15:00 +14°C° 0.4 mm 3 mps 714 mmHg 82%
    16:00 +13°C° 0.4 mm 3 mps 714 mmHg 83%
    17:00 +13°C° 1 mm 3 mps 714 mmHg 86%
    18:00 +12°C° 1 mm 3 mps 714 mmHg 88%
    19:00 +12°C° 1 mm 3 mps 714 mmHg 91%
    20:00 +12°C° 1 mm 3 mps 714 mmHg 90%
    21:00 +12°C° 1 mm 3 mps 713 mmHg 89%
    22:00 +11°C° 1 mm 3 mps 713 mmHg 87%
    23:00 +11°C° 4.7 mm 3 mps 713 mmHg 89%

    Day after tomorrow, 18 November, Monday

    Time Temperature Precipitation Wind Pressure Humidity
    00:00 +11°C° 4.7 mm 3 mps 712 mmHg 91%
    01:00 +11°C° 4.7 mm 3 mps 712 mmHg 93%
    02:00 +11°C° 3.8 mm 3 mps 713 mmHg 93%
    03:00 +11°C° 3.8 mm 4 mps 713 mmHg 92%
    04:00 +11°C° 3.8 mm 4 mps 714 mmHg 92%
    05:00 +10°C° 0.8 mm 4 mps 714 mmHg 93%
    06:00 +10°C° 0.8 mm 3 mps 715 mmHg 93%
    07:00 +9°C° 0.8 mm 3 mps 715 mmHg 94%
    08:00 +10°C° 0.5 mm 3 mps 716 mmHg 90%
    09:00 +11°C° 0.5 mm 3 mps 716 mmHg 87%
    10:00 +11°C° 0.5 mm 3 mps 717 mmHg 84%
    11:00 +12°C° 0.3 mm 3 mps 717 mmHg 81%
    12:00 +12°C° 0.3 mm 3 mps 717 mmHg 78%
    13:00 +12°C° 0.3 mm 3 mps 718 mmHg 76%
    14:00 +12°C° 0 mm 3 mps 718 mmHg 78%
    15:00 +12°C° 0 mm 2 mps 718 mmHg 80%
    16:00 +10°C° 0 mm 2 mps 718 mmHg 83%
    17:00 +10°C° 0 mm 2 mps 718 mmHg 84%
    18:00 +10°C° 0 mm 1 mps 718 mmHg 85%
    19:00 +9°C° 0 mm 1 mps 718 mmHg 86%
    20:00 +9°C° 0 mm 1 mps 718 mmHg 85%
    21:00 +9°C° 0 mm 1 mps 719 mmHg 85%
    22:00 +9°C° 0 mm 1 mps 719 mmHg 84%
    23:00 +9°C° 0 mm 1 mps 719 mmHg 85%

    19 November, Tuesday

    Time Temperature Precipitation Wind Pressure Humidity
    00:00 +9°C° 0 mm 1 mps 719 mmHg 85%
    01:00 +10°C° 0 mm 1 mps 718 mmHg 86%
    02:00 +9°C° 0 mm 2 mps 718 mmHg 87%
    03:00 +9°C° 0 mm 2 mps 718 mmHg 88%
    04:00 +9°C° 0 mm 2 mps 718 mmHg 89%
    05:00 +9°C° 0.1 mm 2 mps 718 mmHg 89%
    06:00 +9°C° 0.1 mm 2 mps 718 mmHg 90%
    07:00 +9°C° 0.1 mm 2 mps 718 mmHg 90%
    08:00 +10°C° 0.2 mm 2 mps 718 mmHg 88%
    09:00 +10°C° 0.2 mm 3 mps 718 mmHg 86%
    10:00 +11°C° 0.2 mm 3 mps 718 mmHg 84%
    11:00 +12°C° 0.4 mm 3 mps 718 mmHg 83%
    12:00 +12°C° 0.4 mm 4 mps 717 mmHg 82%
    13:00 +12°C° 0.4 mm 4 mps 717 mmHg 81%
    14:00 +12°C° 0.4 mm 4 mps 717 mmHg 83%
    15:00 +11°C° 0.4 mm 3 mps 717 mmHg 86%
    16:00 +12°C° 0.4 mm 2 mps 716 mmHg 88%
    17:00 +10°C° 0.3 mm 2 mps 716 mmHg 89%
    18:00 +10°C° 0.3 mm 2 mps 716 mmHg 89%
    19:00 +9°C° 0.3 mm 2 mps 716 mmHg 90%
    20:00 +11°C° 0.3 mm 1 mps 716 mmHg 90%
    21:00 +11°C° 0.3 mm 1 mps 716 mmHg 89%
    22:00 +11°C° 0.3 mm 1 mps 716 mmHg 89%
    23:00 +11°C° 0.2 mm 1 mps 716 mmHg 89%

    20 November, Wednesday

    Time Temperature Precipitation Wind Pressure Humidity
    00:00 +11°C° 0.2 mm 1 mps 715 mmHg 90%
    01:00 +10°C° 0.2 mm 1 mps 715 mmHg 90%
    02:00 +10°C° 1.3 mm 1 mps 715 mmHg 92%
    03:00 +10°C° 1.3 mm 1 mps 715 mmHg 93%
    04:00 +10°C° 1.3 mm 1 mps 715 mmHg 95%
    05:00 +10°C° 0.8 mm 1 mps 715 mmHg 94%
    06:00 +10°C° 0.8 mm 1 mps 715 mmHg 93%
    07:00 +10°C° 0.8 mm 1 mps 716 mmHg 92%
    08:00 +11°C° 0.3 mm 1 mps 716 mmHg 91%
    09:00 +11°C° 0.3 mm 1 mps 717 mmHg 90%
    10:00 +11°C° 0.3 mm 1 mps 717 mmHg 89%
    11:00 +11°C° 0.5 mm 1 mps 717 mmHg 89%
    12:00 +11°C° 0.5 mm 1 mps 718 mmHg 90%
    13:00 +11°C° 0.5 mm 1 mps 718 mmHg 90%
    14:00 +11°C° 0.5 mm 1 mps 718 mmHg 91%
    15:00 +11°C° 0.5 mm 1 mps 718 mmHg 92%
    16:00 +10°C° 0.5 mm 0 mps 718 mmHg 92%
    17:00 +9°C° 0 mm 0 mps 719 mmHg 93%
    18:00 +10°C° 0 mm 1 mps 719 mmHg 93%
    19:00 +9°C° 0 mm 1 mps 719 mmHg 94%
    20:00 +9°C° 0 mm 1 mps 720 mmHg 94%
    21:00 +9°C° 0 mm 1 mps 720 mmHg 94%
    22:00 +9°C° 0 mm 1 mps 720 mmHg 93%
    23:00 +9°C° 0 mm 1 mps 720 mmHg 93%

    21 November, Thursday

    Time Temperature Precipitation Wind Pressure Humidity
    00:00 +9°C° 0 mm 1 mps 720 mmHg 92%
    01:00 +8°C° 0 mm 1 mps 720 mmHg 92%
    02:00 +8°C° 0 mm 1 mps 720 mmHg 92%
    03:00 +8°C° 0 mm 1 mps 720 mmHg 92%
    04:00 +8°C° 0 mm 1 mps 720 mmHg 91%
    05:00 +7°C° 0 mm 1 mps 720 mmHg 91%
    06:00 +7°C° 0 mm 1 mps 720 mmHg 91%
    07:00 +7°C° 0 mm 1 mps 720 mmHg 90%
    08:00 +8°C° 0 mm 1 mps 720 mmHg 86%
    09:00 +9°C° 0 mm 1 mps 720 mmHg 82%
    10:00 +11°C° 0 mm 1 mps 720 mmHg 79%
    11:00 +11°C° 0 mm 1 mps 720 mmHg 75%
    12:00 +11°C° 0 mm 1 mps 720 mmHg 72%
    13:00 +12°C° 0 mm 1 mps 720 mmHg 69%
    14:00 +11°C° 0 mm 1 mps 720 mmHg 73%
    15:00 +11°C° 0 mm 1 mps 720 mmHg 77%
    16:00 +9°C° 0 mm 0 mps 720 mmHg 81%
    17:00 +9°C° 0 mm 1 mps 720 mmHg 82%
    18:00 +9°C° 0 mm 1 mps 720 mmHg 83%
    19:00 +8°C° 0 mm 1 mps 720 mmHg 84%
    20:00 +8°C° 0 mm 1 mps 720 mmHg 84%
    21:00 +8°C° 0 mm 1 mps 720 mmHg 84%
    22:00 +7°C° 0 mm 1 mps 720 mmHg 85%
    23:00 +7°C° 0 mm 1 mps 720 mmHg 85%
    Show more